TimeAEST,TemperatureF,Dew PointF,Humidity,Sea Level PressureIn,VisibilityMPH,Wind Direction,Wind SpeedMPH,Gust SpeedMPH,PrecipitationIn,Events,Conditions,WindDirDegrees,DateUTC
12:00 AM,75,70,81,29.87,,West,5.8,,,,,270,2013-04-20 14:00:00
12:00 AM,75.2,69.8,83,29.86,6.2,West,5.8,-,N/A,,Partly Cloudy,270,2013-04-20 14:00:00
12:30 AM,75.2,69.8,83,29.86,6.2,WNW,5.8,-,N/A,,Partly Cloudy,290,2013-04-20 14:30:00
1:00 AM,74,71,86,29.86,,West,4.6,,,,,280,2013-04-20 15:00:00
1:00 AM,73.4,69.8,88,29.86,6.2,West,4.6,-,N/A,,Partly Cloudy,280,2013-04-20 15:00:00
1:30 AM,73.4,69.8,88,29.83,-9999.0,West,4.6,-,N/A,,Unknown,280,2013-04-20 15:30:00
2:00 AM,73.4,69.8,88,29.83,6.2,South,2.3,-,N/A,,Partly Cloudy,170,2013-04-20 16:00:00
2:30 AM,71.6,69.8,94,29.83,-9999.0,Calm,Calm,-,N/A,,Clear,0,2013-04-20 16:30:00
3:00 AM,74,70,83,29.83,,South,5.8,,,,,190,2013-04-20 17:00:00
3:00 AM,73.4,69.8,88,29.83,-9999.0,South,5.8,-,N/A,,Clear,190,2013-04-20 17:00:00
3:30 AM,71.6,69.8,94,29.83,-9999.0,West,4.6,-,N/A,,Clear,270,2013-04-20 17:30:00
4:00 AM,71,70,94,29.84,,West,5.8,,,,,280,2013-04-20 18:00:00
4:00 AM,71.6,69.8,94,29.83,-9999.0,West,5.8,-,N/A,,Clear,280,2013-04-20 18:00:00
4:30 AM,71.6,69.8,94,29.83,-9999.0,West,5.8,-,N/A,,Clear,280,2013-04-20 18:30:00
5:00 AM,71.6,68.0,88,29.83,-9999.0,West,5.8,-,N/A,,Clear,270,2013-04-20 19:00:00
5:30 AM,69.8,68.0,94,29.83,6.2,Calm,Calm,-,N/A,,Partly Cloudy,0,2013-04-20 19:30:00
6:00 AM,70,69,94,29.84,19,SSE,1.2,,,,Partly Cloudy,150,2013-04-20 20:00:00
6:00 AM,69.8,68.0,94,29.83,6.2,SSE,1.2,-,N/A,,Partly Cloudy,150,2013-04-20 20:00:00
6:30 AM,69.8,68.0,94,29.83,6.2,West,5.8,-,N/A,,Partly Cloudy,260,2013-04-20 20:30:00
7:00 AM,70,68,92,29.86,,NW,3.5,,,,,310,2013-04-20 21:00:00
7:00 AM,69.8,68.0,94,29.86,6.2,NW,3.5,-,N/A,,Partly Cloudy,310,2013-04-20 21:00:00
7:30 AM,73.4,69.8,88,29.86,6.2,West,3.5,-,N/A,,Partly Cloudy,280,2013-04-20 21:30:00
8:00 AM,75.2,69.8,83,29.86,6.2,SE,6.9,-,N/A,,Partly Cloudy,130,2013-04-20 22:00:00
8:30 AM,77.0,69.8,78,29.86,6.2,West,4.6,-,N/A,,Partly Cloudy,260,2013-04-20 22:30:00
9:00 AM,80,71,66,29.87,19,NE,2.3,,,,Partly Cloudy,40,2013-04-20 23:00:00
9:00 AM,78.8,69.8,74,29.86,6.2,NE,2.3,-,N/A,,Scattered Clouds,40,2013-04-20 23:00:00
9:30 AM,80.6,71.6,74,29.89,6.2,North,3.5,-,N/A,,Scattered Clouds,10,2013-04-20 23:30:00
10:00 AM,81,69,59,29.89,,NE,6.9,,,,,50,2013-04-21 00:00:00
10:00 AM,80.6,69.8,70,29.89,6.2,NE,6.9,-,N/A,,Scattered Clouds,50,2013-04-21 00:00:00
10:30 AM,82.4,69.8,66,29.89,6.2,NNE,6.9,-,N/A,,Scattered Clouds,20,2013-04-21 00:30:00
11:00 AM,82.4,71.6,70,29.86,6.2,NNE,8.1,-,N/A,,Mostly Cloudy,20,2013-04-21 01:00:00
11:30 AM,84.2,73.4,70,29.86,6.2,NNE,9.2,-,N/A,,Mostly Cloudy,20,2013-04-21 01:30:00
12:00 PM,82,72,63,29.85,19,NNE,8.1,,,,Partly Cloudy,20,2013-04-21 02:00:00
12:00 PM,82.4,71.6,70,29.83,6.2,NNE,8.1,-,N/A,,Mostly Cloudy,20,2013-04-21 02:00:00
12:30 PM,82.4,71.6,70,29.83,6.2,NNE,9.2,-,N/A,,Mostly Cloudy,20,2013-04-21 02:30:00
1:00 PM,84,73,62,29.83,,NNE,8.1,,,,,20,2013-04-21 03:00:00
1:00 PM,84.2,73.4,70,29.83,6.2,NNE,8.1,-,N/A,,Scattered Clouds,20,2013-04-21 03:00:00
1:30 PM,82.4,71.6,70,29.80,6.2,NNE,10.4,-,N/A,,Scattered Clouds,20,2013-04-21 03:30:00
2:00 PM,82.4,73.4,74,29.80,6.2,NNE,8.1,-,N/A,,Scattered Clouds,20,2013-04-21 04:00:00
2:30 PM,82.4,73.4,74,29.80,6.2,NNE,9.2,-,N/A,,Scattered Clouds,20,2013-04-21 04:30:00
3:00 PM,83,73,64,29.81,19,NNE,9.2,,,,Partly Cloudy,20,2013-04-21 05:00:00
3:00 PM,82.4,73.4,74,29.80,6.2,NNE,9.2,-,N/A,,Partly Cloudy,20,2013-04-21 05:00:00
3:30 PM,82.4,73.4,74,29.80,6.2,NNE,8.1,-,N/A,,Partly Cloudy,30,2013-04-21 05:30:00
4:00 PM,82,73,67,29.81,,NNE,9.2,,,,,20,2013-04-21 06:00:00
4:00 PM,82.4,73.4,74,29.80,6.2,NNE,9.2,-,N/A,,Partly Cloudy,20,2013-04-21 06:00:00
4:30 PM,80.6,71.6,74,29.80,6.2,NNE,8.1,-,N/A,,Scattered Clouds,20,2013-04-21 06:30:00
5:00 PM,80.6,71.6,74,29.80,6.2,North,5.8,-,N/A,,Mostly Cloudy,10,2013-04-21 07:00:00
5:30 PM,78.8,71.6,78,29.83,6.2,North,5.8,-,N/A,,Mostly Cloudy,10,2013-04-21 07:30:00
6:00 PM,78,72,78,29.83,,NNE,2.3,,,,,30,2013-04-21 08:00:00
6:00 PM,78.8,71.6,78,29.83,6.2,NNE,2.3,-,N/A,,Scattered Clouds,30,2013-04-21 08:00:00
6:30 PM,77.0,71.6,83,29.83,6.2,Calm,Calm,-,N/A,,Mostly Cloudy,0,2013-04-21 08:30:00
7:00 PM,76,72,85,29.85,,Calm,Calm,,,,,,2013-04-21 09:00:00
7:00 PM,77.0,71.6,83,29.83,6.2,Calm,Calm,-,N/A,,Mostly Cloudy,0,2013-04-21 09:00:00
7:30 PM,77.0,71.6,83,29.86,6.2,Calm,Calm,-,N/A,,Scattered Clouds,0,2013-04-21 09:30:00
8:00 PM,77.0,73.4,89,29.86,6.2,Calm,Calm,-,N/A,,Scattered Clouds,0,2013-04-21 10:00:00
8:30 PM,77.0,73.4,89,29.86,6.2,Calm,Calm,-,N/A,,Partly Cloudy,0,2013-04-21 10:30:00
9:00 PM,76,72,85,29.89,,Calm,Calm,,,,,,2013-04-21 11:00:00
9:00 PM,75.2,71.6,89,29.89,6.2,Calm,Calm,-,N/A,,Partly Cloudy,0,2013-04-21 11:00:00
9:30 PM,75.2,73.4,94,29.89,6.2,Calm,Calm,-,N/A,,Partly Cloudy,0,2013-04-21 11:30:00
10:00 PM,75,73,92,29.90,,Calm,Calm,,,,,,2013-04-21 12:00:00
10:00 PM,75.2,73.4,94,29.89,6.2,Calm,Calm,-,N/A,,Scattered Clouds,0,2013-04-21 12:00:00
10:30 PM,75.2,73.4,94,29.89,6.2,WNW,2.3,-,N/A,,Mostly Cloudy,290,2013-04-21 12:30:00
11:00 PM,75.2,73.4,94,29.89,6.2,WNW,3.5,-,N/A,,Mostly Cloudy,290,2013-04-21 13:00:00
11:30 PM,77.0,73.4,89,29.89,6.2,Calm,Calm,-,N/A,,Mostly Cloudy,0,2013-04-21 13:30:00